Regional Weather Roundup
Issued by NWS Sterling, VA

Home | Current Version | Previous Version | Text Only | Print | Product List | Glossary Off
Versions: 1 2 3 4 5 6 7 8 9 10 11 12 13 14 15 16 17 18 19 20 21 22 23 24 25 26 27

000
ASUS41 KLWX 282111
RWRLWX

REGIONAL WEATHER ROUNDUP
NATIONAL WEATHER SERVICE BALTIMORE MD/WASHINGTON DC
500 PM EDT THU JUL 28 2016

Note: "FAIR" indicates few or no clouds below 12,000 feet
with no significant weather and/or obstructions to visibility.
 TC=TEMPERATURE CELSIUS

 * =Non NWS site. Station does not report precipitation (e.g. rain,
    snow, etc.), thunder, or fog.

DCZ001-MDZ009-015-VAZ040>042-051-053>054-282200-
WASHINGTON METRO

CITY           SKY/WX    TMP DP  RH WIND       PRES   REMARKS
WASHINGTON NAT PTSUNNY   85  70  60 N13       29.82R
DULLES         TSTM      77  74  90 N15       29.84F FOG
ANDREWS AFB    PTSUNNY   90  72  56 VRB1      29.81  HX  97
FT BELVOIR     FAIR      91  72  53 SE5       29.80  HX  99
QUANTICO       PTSUNNY   91  75  59 S3        29.80S HX 101
LEESBURG*      HVY RAIN  77  77 100 N3        29.88R
MANASSAS*      PTSUNNY   82  72  69 N13G21    29.84R
GAITHERSBURG*  CLOUDY    73  70  88 CALM      29.90F

$$

MDZ006>007-011-014-282200-
BALTIMORE METRO

CITY           SKY/WX    TMP DP  RH WIND       PRES   REMARKS
BWI AIRPORT    TSTM      76  73  91 NE6       29.86R FOG
MD SCIENCE CTR   N/A     75  73  93 MISG      29.85R
MARTIN STATE   DRIZZLE   75  75 100 NW5       29.89R
ANNAPOLIS      LGT RAIN  79  74  84 N17G30    29.85R
FORT MEADE*    CLOUDY    75  72  88 NE5       29.88R

$$

MDZ012-015-019>023-282200-
MARYLAND EASTERN SHORE

CITY           SKY/WX    TMP DP  RH WIND       PRES   REMARKS
OCEAN CITY       N/A    N/A N/A N/A MISG      29.87F
SALISBURY      NOT AVBL
BAY BRIDGE AP* CLOUDY    88  77  70 E6        29.83R HX 100
CAMBRIDGE*     SUNNY     82  72  69 E12       29.82R
EASTON*        PTSUNNY   86  77  74 SE8       29.87R HX  97

$$

MDZ017>025-282200-
SOUTHERN MARYLAND

CITY           SKY/WX    TMP DP  RH WIND       PRES   REMARKS
PATUXENT RIVER PTSUNNY   91  79  67 SE13      29.79F HX 107
ST INIGOES     CLOUDY    90  80  72 E7        29.78F HX 107
LEONARDTOWN*     N/A     91  72  52 MISG        N/A  HX  98

$$

MDZ003>005-282200-
NORTH CENTRAL MARYLAND

CITY           SKY/WX    TMP DP  RH WIND       PRES   REMARKS
FREDERICK*     PTSUNNY   77  75  94 CALM      29.87R
HAGERSTOWN APT CLOUDY    78  70  76 N6        29.87F

$$

MDZ501>502-282200-
WESTERN MARYLAND

CITY           SKY/WX    TMP DP  RH WIND       PRES   REMARKS
OAKLAND*         N/A     64  64 100 CALM      30.01R FOG
CUMBERLAND*    PTSUNNY   75  70  83 CALM      29.93F

$$

VAZ025>031-282200-
SHENANDOAH VALLEY

CITY           SKY/WX    TMP DP  RH WIND       PRES   REMARKS
WINCHESTER*    HVY RAIN  73  72  94 CALM      29.89R
FRONT ROYAL*   CLOUDY    72  72 100 S3        29.90R
LURAY*         NOT AVBL
NEW MARKET*    CLOUDY   N/A N/A N/A NE8       29.87R
STAUNTON*      FAIR      88  74  63 SE6       29.87F HX  96
WAYNESBORO*    FAIR      88  71  57 CALM      29.87S HX  94

$$

WVZ021-048>050-054>055-282200-
EASTERN WEST VIRGINIA PANHANDLE

CITY           SKY/WX    TMP DP  RH WIND       PRES   REMARKS
MARTINSBURG    LGT RAIN  78  69  73 CALM      29.86S
PETERSBURG*    HVY RAIN  74  72  93 CALM      29.91S

$$

VAZ036>039-050-282200-
CENTRAL FOOTHILLS

CITY           SKY/WX    TMP DP  RH WIND       PRES   REMARKS
CHARLOTTESVILL FAIR      96  69  41 SW7       29.81F HX 102
CULPEPER*      FAIR      83  74  76 N12       29.84R
ORANGE*          N/A     91  73  55 CALM      29.83S HX 100
GORDONSVILLE*  MOCLDY    91  77  64 E3        29.80S HX 104
WARRENTON*     PTSUNNY   83  67  59 N10       29.84R

$$

VAZ055>057-282200-
NORTH AND CENTRAL PIEDMONT

CITY           SKY/WX    TMP DP  RH WIND       PRES   REMARKS
FREDERICKSBRG*   N/A     94  75  53 SW5       29.79S HX 105
STAFFORD*      FAIR      93  69  45 SW3       29.84S HX  98

$$

NCZ024-NYZ072-PAZ021-071-VAZ022-071-282200-
OTHER REGIONAL OBSERVATIONS

CITY           SKY/WX    TMP DP  RH WIND       PRES   REMARKS
NEW YORK CITY  CLOUDY    84  70  62 VRB5      29.88S
PHILADELPHIA   LGT RAIN  75  72  90 S10       29.91R
PITTSBURGH     CLOUDY    72  66  81 S5        29.91S
ROANOKE        TSTM      76  73  91 W6        29.89R FOG
RICHMOND       FAIR      93  76  57 S14       29.78F HX 105
RALEIGH        MOSUNNY   96  72  45 SW12      29.83F HX 104

$$

ANZ530>537-282200-
MARINE OBSERVATIONS

STATION/POSITION TIME  TEMP    WIND        PRES
                       AIR SEA DIR/SP/G
                 (UTC) (F)     (DEG/KT/KT) (MB)
THOMAS PT LIGHT  2100   85 86  100/  9/ 10 1011.4R
BALT KEY BRIDGE  2048   75      50/  8/  9 1011.0R
COVE POINT       2048   86     170/ 11/ 14 1009.7S
LEWISETTA        2048   89     290/  2/  2 1008.1F
SOLOMONS ISLAND  2036   87 88  130/ 15/ 16   N/A
PINEY POINT      2048          110/ 11/ 12   N/A

$$





USA.gov is the U.S. government's official web portal to all federal, state and local government web resources and services.